Volver al catálogo

STARLINK-36475

ActivoComunicacionesVLEO
NORAD 67350·PAYLOAD·🇺🇸 United States

Lanzado Jan 9, 2026 desde Cape Canaveral Space Force Station

Loading…

Próximos Pases (próximas 24 horas)

TLE

ActualizadoSource: CelesTrak SupGP

Época: Sep 15, 2026, 03:40 UTC

1 67350C 26003S   26258.15326389 -.00099370  00000+0 -35970-2 0  2585
2 67350  42.9993 236.8533 0001449 263.4302  54.5621 15.27647314    11

Sigue STARLINK-36475 en tiempo real con AllMySat

Download on the App Store